Theta_e
284 284 284 284 284 283 283 282 282 282 282 282 282 281 280 280 280 279 279 278 278 277 277 277 276 276 275 275 275 274 274 274 274 273 273 273 273 272 272 272 271 271 272 271 272 272 272 272 272 272 272 272 273 273 272 272 272 273 273 273 272 272 272 271 270 269 271 273 273 272 273 274 273 274 273 273 273 274 276 275 275 274 275 274 275
284 284 284 284 283 283 282 282 282 282 281 281 281 281 281 280 279 278 278 278 277 277 277 277 276 276 275 274 274 274 273 273 273 273 272 272 272 273 272 271 270 270 271 271 271 272 272 271 271 271 272 272 272 272 272 272 272 271 272 272 271 272 272 271 269 269 268 271 271 273 272 274 271 273 272 272 272 274 273 274 274 274 274 274 274
284 284 284 283 283 283 282 282 282 281 281 280 280 280 280 279 278 279 278 278 278 277 278 277 276 275 274 274 273 273 273 272 272 272 272 271 271 270 271 270 270 270 270 271 271 271 271 271 270 271 272 271 271 271 272 271 271 271 271 272 271 271 271 272 270 269 269 269 272 271 272 272 272 271 272 273 273 273 272 273 273 274 275 274 274
284 284 283 283 282 282 282 282 281 281 280 280 280 280 280 279 279 279 279 279 278 278 277 276 275 274 273 273 272 272 272 272 272 272 271 271 270 270 270 270 270 270 271 270 271 271 270 270 271 271 271 270 271 271 271 271 271 271 271 271 271 271 273 273 273 271 270 269 271 271 272 271 272 272 273 273 272 272 272 272 273 273 273 274 274
283 283 283 282 282 282 282 281 281 281 280 280 280 280 280 279 279 279 278 277 277 276 276 275 274 273 273 272 272 271 272 272 271 271 271 270 270 270 270 270 270 271 271 271 272 270 270 270 270 271 271 270 270 270 271 271 272 272 272 272 272 273 273 273 272 272 271 270 270 272 272 272 272 272 272 271 271 272 272 272 272 272 273 274 274
283 283 283 282 282 282 281 281 281 281 281 280 281 280 279 279 279 278 278 277 276 275 275 275 274 273 272 272 271 271 271 271 271 270 270 270 270 270 270 270 271 271 271 271 271 271 270 270 270 270 270 269 269 271 272 272 272 271 271 272 272 272 272 272 272 272 271 270 270 270 271 271 271 271 272 272 271 270 271 272 272 273 273 273 273
283 283 283 282 282 282 282 281 282 281 281 281 280 279 278 278 278 278 277 276 275 275 274 274 274 273 272 271 271 271 271 270 269 269 269 269 270 270 270 269 270 270 270 270 270 270 270 270 270 270 270 270 271 272 272 271 271 271 272 271 272 271 271 271 271 271 270 270 270 271 270 271 271 270 272 273 272 272 271 271 271 273 273 273 273
283 283 282 282 282 282 282 282 282 282 281 280 279 279 278 278 278 277 276 276 275 275 274 273 273 273 272 270 271 270 270 269 269 269 269 269 270 270 270 269 269 269 269 269 270 270 270 270 270 270 270 271 272 272 271 271 272 271 272 271 271 270 270 270 270 270 270 269 269 269 270 270 270 272 273 272 271 271 272 271 270 271 272 274 274
282 282 282 282 282 282 282 282 282 281 280 279 278 278 277 277 276 276 276 275 274 274 274 273 271 271 270 271 271 271 270 270 269 269 269 269 270 271 270 269 268 268 268 268 269 269 268 269 270 270 271 273 273 273 273 273 272 270 271 271 270 270 269 269 269 269 269 269 269 270 270 269 270 270 270 270 270 270 272 273 271 272 273 273 273
282 282 282 282 282 282 282 282 281 280 279 278 278 277 277 276 275 275 275 274 274 273 273 272 272 271 271 271 270 270 270 269 273 276 275 271 271 271 270 270 271 270 270 269 269 269 269 268 269 271 272 272 272 273 273 274 274 273 272 272 271 270 270 269 269 269 269 268 269 269 269 269 270 271 271 271 272 273 272 272 271 272 273 272 273
282 282 282 282 282 282 281 281 280 279 279 278 277 277 276 276 275 275 274 273 273 272 272 272 271 271 271 270 269 269 269 269 275 277 279 278 272 271 271 271 270 270 270 270 269 269 268 268 267 269 270 271 270 272 273 273 274 274 275 275 275 273 271 270 270 271 270 269 270 270 270 270 271 272 271 272 273 272 272 272 272 272 271 270 269
282 282 282 282 282 281 281 280 279 279 278 277 276 276 276 275 274 274 273 273 272 272 272 272 271 271 270 270 269 269 268 274 276 278 279 279 276 273 272 271 270 270 271 270 268 267 266 267 267 268 268 268 269 269 271 272 273 274 275 276 276 277 277 275 273 272 272 271 270 271 270 270 271 272 272 272 272 272 273 272 272 271 270 269 269
282 282 282 281 281 281 280 279 278 278 277 276 275 275 274 274 274 273 273 273 272 272 272 271 270 270 270 269 268 268 267 274 276 278 278 278 278 275 272 272 271 271 270 268 266 266 267 267 266 268 268 271 270 269 267 267 271 274 275 276 276 277 277 278 278 275 274 272 271 271 271 271 271 272 273 273 273 271 271 270 270 270 270 269 269
282 282 281 281 281 280 279 278 277 277 276 275 274 274 274 274 274 273 273 272 272 272 271 270 270 269 269 268 267 266 266 272 276 277 277 277 277 276 273 272 271 270 267 267 267 267 267 266 266 266 267 267 268 268 268 268 269 270 271 271 272 273 276 276 276 276 275 273 272 271 272 273 271 272 272 273 271 269 269 268 269 268 268 267 269
281 282 281 281 280 279 279 278 277 277 276 275 274 274 274 274 273 273 272 272 272 271 270 270 269 268 267 266 265 265 265 272 275 277 277 277 276 276 271 270 268 267 267 267 267 267 267 267 267 266 267 267 268 270 270 272 272 272 273 273 274 274 274 273 272 272 272 273 273 273 273 272 272 272 272 272 271 270 270 269 268 267 267 268 268
281 281 281 280 280 279 279 278 277 276 275 273 273 274 274 273 273 272 271 272 271 270 270 268 268 266 266 264 264 264 264 273 275 276 277 276 277 271 270 269 268 267 267 267 267 267 267 267 266 266 267 268 271 275 275 275 275 273 272 273 273 272 271 273 275 276 275 274 273 272 272 272 274 272 273 272 271 272 271 268 266 265 264 264 264
282 281 281 281 280 279 279 278 277 275 274 273 273 273 274 273 273 272 271 271 270 269 269 268 267 265 264 263 263 263 263 270 274 275 276 276 276 270 269 267 267 266 266 266 266 267 267 267 267 267 268 269 273 276 277 277 274 273 273 271 270 269 269 270 274 275 275 275 274 274 274 274 274 275 274 274 273 272 267 264 262 264 263 263 263
282 281 281 280 280 279 279 278 277 275 274 273 273 274 274 273 272 271 271 270 270 269 268 265 263 263 264 263 263 262 261 266 273 274 275 276 274 269 268 267 266 265 265 265 266 266 268 271 271 270 271 271 275 276 277 276 274 273 270 269 267 265 267 271 271 270 272 272 271 272 272 272 273 273 272 273 274 272 266 262 264 265 264 264 262
282 281 281 281 280 279 278 278 277 275 274 274 273 274 273 273 272 270 270 270 269 267 265 264 262 261 262 262 266 264 260 264 271 273 275 275 274 270 269 266 265 264 264 264 266 267 268 270 272 273 273 274 276 276 277 276 274 270 269 267 265 265 268 269 267 267 266 264 264 265 265 267 266 266 267 272 272 271 268 267 267 265 264 264 263
282 282 281 280 279 278 278 277 277 275 274 274 273 274 273 270 269 269 268 268 267 265 263 263 263 262 261 261 262 264 262 261 263 272 274 275 276 270 268 266 265 264 263 264 265 267 269 269 272 274 274 275 275 276 277 277 274 269 268 265 265 266 270 266 267 266 263 262 262 263 263 264 264 265 265 266 267 267 269 268 268 267 265 264 264
280 280 279 278 277 277 277 276 276 275 274 274 273 270 269 269 268 267 266 265 264 263 262 262 262 261 260 261 260 261 261 261 262 270 273 274 276 274 269 268 267 266 264 266 268 268 268 269 270 273 274 274 275 276 276 276 275 270 267 266 268 272 271 264 263 266 261 261 261 261 262 262 263 263 264 265 266 267 267 269 268 268 267 265 264
278 277 277 277 276 275 275 275 275 274 271 269 268 266 264 266 266 266 265 264 263 262 261 261 261 261 259 260 259 260 261 265 261 267 272 274 275 276 271 269 270 267 267 268 269 269 270 270 268 271 274 274 275 276 275 275 275 268 269 274 275 274 268 263 259 258 259 259 259 260 260 261 261 262 263 264 265 267 267 267 268 268 268 268 266
276 276 275 275 274 274 273 272 272 270 268 268 268 266 264 264 263 263 264 263 262 261 261 261 260 260 259 259 259 259 260 261 268 265 269 273 275 276 276 273 274 272 269 269 270 270 271 270 270 273 274 275 275 275 274 274 272 270 274 274 273 272 266 258 260 258 258 259 259 259 260 260 261 262 263 264 265 266 267 267 267 267 267 268 268
274 274 274 273 272 271 270 269 269 268 267 266 267 265 264 263 262 262 262 262 262 261 261 260 259 260 260 260 260 260 260 260 264 269 268 272 274 276 276 277 276 273 273 272 272 271 270 270 270 274 274 275 275 274 273 272 270 272 272 272 270 267 260 258 257 258 258 258 259 259 260 260 261 263 264 265 265 266 266 266 266 267 266 267 267
273 272 272 271 270 268 267 267 266 266 266 266 266 265 263 262 262 260 261 262 261 262 261 260 260 260 260 260 260 260 260 260 260 265 271 272 274 275 276 276 277 277 274 273 273 271 272 274 275 274 274 274 273 272 270 269 270 271 271 270 266 257 258 256 257 257 257 258 259 259 260 262 263 265 266 266 266 265 265 265 265 265 265 266 266
271 271 269 269 268 265 266 263 263 264 264 265 267 266 265 263 263 261 261 261 261 261 261 259 259 259 259 260 261 261 261 260 261 262 266 270 272 274 275 276 275 276 275 274 274 275 275 275 274 273 272 271 268 264 263 263 269 268 268 266 257 257 256 256 256 257 257 258 259 259 261 262 264 265 265 265 263 263 263 263 263 264 264 264 264
270 267 268 266 263 264 266 265 263 262 262 262 262 263 263 263 263 262 261 261 261 260 260 259 259 259 260 261 262 262 261 261 262 263 263 264 264 266 269 269 272 274 273 271 272 270 271 271 271 272 271 271 269 268 267 266 260 259 258 258 256 256 257 256 257 258 259 259 259 260 261 263 265 264 263 263 262 263 263 263 263 263 263 264 263
270 268 266 265 264 263 264 263 263 262 261 262 262 261 261 262 263 263 262 262 262 261 261 261 261 261 261 262 262 260 260 261 263 263 264 263 264 264 264 264 264 264 265 266 266 268 269 271 269 264 263 261 259 255 254 255 257 258 255 255 255 257 261 263 263 258 258 258 259 261 262 263 263 263 263 262 262 262 263 263 262 262 263 263 262
265 263 262 262 262 262 263 262 262 262 261 260 261 262 262 262 263 262 261 262 264 264 263 262 262 262 262 262 262 261 262 262 263 267 265 267 265 264 264 264 264 264 267 272 270 270 268 266 264 263 260 259 257 255 254 253 254 254 254 255 254 255 255 254 255 257 258 258 259 260 261 263 263 263 263 262 262 262 262 262 262 262 262 263 262
263 264 263 262 262 261 261 261 260 261 261 260 260 258 263 265 264 263 262 266 268 270 268 263 263 263 263 263 264 264 264 265 269 270 271 271 272 271 270 270 271 269 272 275 274 269 267 265 264 262 260 256 255 256 256 253 254 254 253 260 258 255 256 256 256 257 259 259 260 260 261 263 263 262 262 262 262 262 263 264 261 262 261 261 261
265 263 262 263 262 262 261 260 260 259 259 259 259 260 260 263 269 270 268 267 269 271 272 271 271 269 265 263 265 270 270 271 271 272 273 273 273 274 273 273 274 274 275 273 272 267 265 264 263 260 259 256 255 256 254 254 255 254 254 254 254 256 258 256 256 258 260 260 260 261 262 262 261 261 261 262 262 261 261 261 261 261 261 261 261
268 266 264 262 262 262 261 261 260 259 259 259 260 261 262 262 263 269 272 271 271 271 272 273 273 272 271 269 265 265 270 272 273 273 273 274 274 274 274 275 275 276 276 276 270 268 266 265 262 262 258 255 256 255 254 253 254 254 253 254 255 255 257 256 258 258 259 259 260 261 262 261 261 261 262 262 262 261 260 260 260 260 261 261 261
268 265 263 262 261 262 261 260 260 260 260 260 261 262 262 263 263 263 268 273 273 272 272 274 274 274 274 273 272 269 269 271 273 274 274 274 275 275 275 276 276 276 276 272 269 265 263 262 261 260 256 257 256 253 254 252 253 254 252 253 255 256 255 257 259 258 257 259 261 261 261 260 260 261 262 262 261 260 260 259 260 260 260 261 261
265 264 263 262 261 261 261 261 261 261 261 261 262 262 263 263 264 264 264 265 268 272 274 274 274 274 275 275 275 274 273 272 273 274 274 275 275 275 275 273 275 275 274 270 266 265 263 260 259 257 256 255 254 253 254 253 253 253 254 255 255 255 256 256 256 256 257 259 260 261 260 259 260 260 260 261 261 260 259 259 259 260 260 261 261
261 262 263 262 261 261 261 262 261 261 262 263 263 263 263 264 264 264 264 264 265 266 268 270 273 275 273 274 275 276 275 275 274 274 275 275 275 275 275 272 270 270 265 261 262 262 261 260 259 258 255 255 255 253 254 252 252 253 254 254 254 254 255 256 255 256 257 259 260 259 259 259 258 259 260 260 260 260 259 259 259 260 261 261 261
260 261 260 261 261 261 262 262 263 263 263 264 264 264 264 263 263 263 264 264 265 265 266 267 265 267 269 270 271 272 273 274 275 275 275 275 275 276 270 269 267 266 266 264 261 260 259 258 256 257 254 253 253 253 254 253 253 254 252 252 254 254 253 254 255 256 258 259 259 259 259 257 257 258 259 260 260 260 259 259 259 260 261 261 261
259 259 260 259 260 260 260 261 262 262 265 264 264 263 263 263 263 263 262 263 262 263 264 263 262 263 266 263 264 268 270 271 272 272 273 274 275 272 270 268 267 266 264 264 261 258 258 258 256 254 254 254 254 254 252 253 252 253 255 255 253 253 253 254 256 259 259 257 256 257 258 257 257 257 258 259 260 260 260 260 260 260 261 261 261
259 258 258 258 257 258 259 259 261 264 263 263 263 262 262 262 262 262 261 261 262 261 260 260 262 261 261 262 263 260 261 266 268 268 268 268 266 264 264 264 265 264 264 263 262 259 258 257 253 253 255 253 253 253 252 252 252 251 252 251 253 254 258 259 260 258 256 255 256 256 258 257 257 257 259 259 259 259 259 260 259 259 260 261 261
256 261 262 263 262 258 258 259 261 262 262 262 262 262 261 261 260 260 260 260 260 260 260 259 259 259 260 261 258 258 259 257 257 259 260 261 261 260 260 261 261 262 262 262 260 258 256 256 255 253 253 252 253 252 252 253 251 251 251 251 252 252 254 254 254 254 253 254 254 255 255 256 257 258 260 259 259 259 259 260 259 259 259 259 260
258 257 262 264 261 262 260 260 260 260 260 260 260 260 259 258 257 257 258 259 258 259 259 258 258 258 260 258 257 254 253 256 256 257 257 257 258 258 256 256 258 259 259 259 258 257 255 255 254 253 254 252 253 253 251 252 252 252 251 252 252 252 253 253 254 253 253 253 253 254 255 256 258 259 259 259 259 259 260 259 259 258 258 259 259
256 259 261 263 261 260 259 260 259 259 259 259 259 259 259 259 259 259 259 259 259 259 258 258 258 259 259 260 263 262 257 255 254 254 255 256 256 255 254 254 254 255 255 255 255 254 254 254 253 254 253 253 253 253 251 251 251 251 252 253 252 253 253 253 253 253 253 253 253 254 255 256 258 258 258 259 260 260 259 259 258 258 258 258 259
258 258 259 259 260 258 259 259 259 259 259 259 259 259 259 260 260 259 259 258 258 258 258 257 257 256 258 262 263 265 263 259 258 258 258 257 255 255 255 255 255 254 255 254 254 254 253 253 254 254 254 254 253 252 251 250 251 251 252 252 252 252 253 253 253 252 253 253 253 254 255 257 258 259 259 260 258 258 258 259 259 258 258 258 258
257 257 258 258 258 258 259 259 259 258 258 258 258 259 259 259 258 259 258 257 256 255 254 255 255 254 254 260 261 262 259 258 259 260 260 260 259 258 258 257 256 256 255 255 254 254 254 253 254 254 254 254 254 253 253 253 251 251 251 251 252 252 252 253 253 253 252 253 253 254 255 255 256 257 257 258 258 258 258 258 259 259 258 257 257
257 257 257 257 257 257 257 257 256 256 256 258 259 258 258 258 257 255 254 253 254 253 253 253 253 253 253 254 256 254 251 252 251 253 254 255 256 257 257 256 254 253 253 253 253 251 251 251 253 253 253 254 254 251 253 253 252 251 251 251 252 253 252 253 253 253 252 252 253 254 254 255 256 256 257 257 257 257 257 259 259 258 258 257 257
256 257 257 255 254 254 254 254 255 256 257 257 256 255 255 253 253 252 252 252 253 253 252 252 252 252 252 252 250 250 250 250 251 251 252 251 252 253 254 253 253 253 253 253 252 251 251 252 252 252 253 254 254 254 253 253 251 252 252 252 251 252 253 253 253 251 252 252 253 254 254 254 254 255 256 256 257 257 258 258 258 259 258 257 257
257 257 257 255 254 254 254 254 255 255 255 253 252 250 251 251 250 251 252 251 251 251 251 251 251 251 251 251 250 250 251 248 249 250 251 251 251 252 252 252 251 251 252 252 252 252 252 252 252 252 253 253 254 254 254 253 252 252 251 251 252 252 253 253 252 251 252 252 253 254 254 255 255 256 257 257 257 258 258 258 258 258 258 258 257
256 256 256 255 254 254 253 252 251 251 250 251 250 250 250 249 249 250 251 251 250 251 251 250 249 250 250 249 251 250 250 250 250 250 250 251 251 251 251 251 251 251 252 252 252 252 252 252 253 252 252 253 253 253 253 253 252 251 251 251 251 252 252 252 253 253 253 253 253 253 254 254 254 255 256 256 256 257 258 258 258 257 257 258 257
254 253 253 253 252 251 250 250 251 253 250 250 250 250 250 250 249 250 249 249 249 250 250 249 248 249 249 250 249 250 249 250 249 250 250 251 251 251 251 251 252 252 252 252 252 252 252 252 252 252 252 252 253 253 253 253 252 252 251 251 251 251 252 253 252 253 253 252 252 253 253 253 254 255 255 255 255 256 257 257 258 258 258 258 258
252 251 250 251 250 250 250 250 251 250 249 249 250 250 250 249 249 249 249 249 249 249 247 248 248 248 248 249 249 249 249 249 249 249 250 250 251 251 251 251 251 251 251 251 252 252 252 252 252 252 252 252 252 252 252 252 252 252 251 251 251 253 254 254 254 254 254 253 252 252 253 253 254 254 255 255 256 256 257 258 258 258 258 259 258
250 250 250 250 250 249 249 249 248 247 248 248 248 248 249 249 248 249 248 248 248 247 248 247 248 248 247 249 248 249 248 249 249 250 250 250 250 250 250 250 250 250 251 251 252 252 252 252 251 251 251 251 251 251 252 252 252 252 251 251 253 254 254 255 255 255 255 254 253 253 253 253 254 254 255 255 256 258 258 258 258 258 258 258 258
250 249 249 249 248 248 248 246 246 246 246 247 247 247 248 248 249 248 247 247 248 248 247 247 246 247 247 248 248 249 249 249 249 249 249 250 250 250 250 250 250 250 250 251 251 251 251 251 251 251 251 251 251 251 251 251 251 251 252 254 254 254 255 255 255 255 256 256 254 254 254 254 254 255 256 257 258 258 258 259 258 258 258 258 258
Wind_Speed
10 10 9 9 11 11 10 8 8 7 8 7 8 8 7 7 6 6 6 6 6 6 6 6 5 5 5 5 5 5 5 4 3 4 5 5 5 4 3 4 4 3 3 3 3 2 2 2 2 3 2 3 3 3 3 3 3 4 3 3 3 3 3 4 8 13 15 5 6 9 9 11 9 8 11 11 10 10 10 9 10 10 10 9 10
11 11 10 11 12 11 9 7 8 8 8 8 8 8 8 7 7 6 7 5 5 6 6 5 4 5 5 5 5 5 4 4 4 4 5 5 4 3 4 3 3 2 2 1 2 2 2 1 2 3 3 3 3 4 4 4 4 3 3 3 3 3 3 5 7 10 15 13 8 7 6 8 12 8 8 11 12 11 12 10 9 9 9 10 9
10 10 10 11 11 10 9 9 8 9 9 8 8 8 8 7 6 8 7 6 5 6 6 5 5 5 5 5 5 4 4 4 3 5 5 5 5 3 3 3 3 2 1 1 1 1 1 2 2 3 3 4 4 4 3 3 3 3 3 3 2 4 4 5 7 10 13 14 9 9 10 10 10 11 11 9 10 10 12 11 10 10 8 9 9
10 10 10 11 10 10 10 9 10 10 10 8 9 8 7 7 6 7 7 6 7 5 5 6 5 5 5 5 5 5 5 4 4 4 5 5 4 4 3 2 2 1 1 1 1 1 2 2 3 4 4 4 4 4 3 3 3 3 3 3 3 4 4 5 7 9 11 14 12 11 11 13 12 9 9 10 10 11 9 11 10 9 10 9 9
10 10 10 12 11 11 11 10 11 10 10 9 10 9 8 8 7 7 7 6 5 6 5 5 5 5 6 5 5 5 5 5 6 5 4 4 5 4 3 2 1 1 1 1 2 1 2 3 3 4 4 3 4 4 4 5 5 3 4 5 4 5 6 6 7 8 10 13 14 11 12 12 12 10 9 11 12 10 9 10 10 10 9 9 9
10 10 10 12 12 12 11 11 12 12 11 10 10 9 8 8 8 7 7 7 6 5 7 6 6 6 5 5 5 5 4 5 5 5 5 5 4 4 3 2 1 0 0 0 1 1 2 3 3 3 3 3 3 4 5 6 5 5 6 6 6 6 7 7 7 9 10 11 12 14 12 12 14 10 8 10 12 13 12 10 9 8 8 10 9
10 11 11 12 12 12 12 12 12 12 11 10 9 8 8 8 9 9 7 7 8 7 6 6 5 6 5 5 5 5 5 4 5 5 5 5 5 4 3 3 2 1 0 0 1 2 2 2 2 2 2 3 4 5 5 6 5 6 6 6 6 6 7 7 8 9 10 11 11 11 12 11 11 15 14 13 13 11 13 16 14 8 9 10 11
11 11 12 12 12 12 12 11 11 10 9 9 9 8 8 8 8 7 7 8 8 7 8 7 5 5 5 4 4 4 4 4 4 4 4 4 4 4 4 3 3 1 1 1 1 1 1 1 1 2 2 4 5 5 5 5 5 5 5 5 6 6 7 7 7 8 9 9 10 12 11 12 11 10 10 12 14 12 11 13 15 17 16 11 9
11 12 12 12 12 11 10 9 8 9 9 9 9 9 9 8 7 8 7 7 6 6 6 6 6 5 4 4 4 4 4 5 4 4 4 4 4 4 4 4 3 2 1 1 0 0 1 1 1 1 3 6 8 6 5 5 4 4 5 5 5 6 5 5 5 6 8 8 10 10 11 11 10 10 11 13 13 16 13 11 16 15 12 12 11
12 12 12 12 10 9 10 9 10 9 9 10 10 9 9 9 8 8 8 7 7 6 6 6 6 7 7 6 4 4 3 3 5 9 7 5 5 4 4 3 3 2 1 0 0 0 0 1 2 7 7 7 6 6 6 6 7 5 5 5 5 5 6 6 7 7 8 9 9 9 9 8 8 13 15 15 16 13 15 17 15 13 13 15 11
11 11 12 10 9 9 10 10 9 10 10 9 9 10 10 8 8 8 8 8 8 7 7 8 8 6 6 6 5 4 3 3 7 7 8 11 6 4 4 3 2 2 1 1 2 0 0 1 2 5 6 7 6 8 7 7 7 8 9 10 10 7 6 7 8 7 7 9 8 8 7 9 11 13 17 16 11 15 15 12 13 14 13 13 14
12 12 11 10 10 11 11 10 10 10 9 10 9 8 8 8 8 8 8 8 7 7 7 8 7 6 6 5 5 4 4 6 7 7 7 9 8 5 4 3 2 2 2 2 1 0 1 2 3 3 4 5 5 5 7 11 11 12 12 13 14 16 15 11 10 10 10 10 10 9 12 13 14 13 11 12 14 13 13 13 13 13 14 13 12
12 12 11 11 11 11 9 10 10 9 10 9 8 8 9 9 8 8 9 7 7 8 9 8 7 6 6 7 5 4 4 7 7 7 8 8 8 6 3 4 3 3 2 2 2 3 3 4 3 4 4 9 7 5 5 7 11 15 15 16 16 17 16 17 17 13 11 11 11 12 11 14 14 10 11 14 15 14 13 12 13 13 12 12 13
12 12 11 12 11 10 10 9 10 10 9 8 8 9 9 11 9 7 6 6 7 6 6 8 7 7 7 6 5 4 4 6 8 7 9 9 8 6 4 4 3 3 2 3 3 4 4 4 4 5 4 4 6 6 6 7 8 9 8 8 8 11 14 14 15 17 15 11 11 12 14 12 12 13 15 15 15 13 13 13 12 12 12 14 16
11 12 12 11 10 9 10 10 10 9 9 9 9 9 10 9 9 8 8 9 9 9 9 8 7 6 6 5 5 5 5 9 8 9 9 9 8 6 5 3 2 2 4 4 4 5 5 5 4 5 5 5 7 8 7 8 7 7 7 6 5 3 3 6 8 8 8 8 10 11 11 12 13 14 13 11 11 11 11 11 11 10 11 12 12
13 12 12 11 12 12 11 11 10 9 9 9 10 11 10 10 11 9 7 6 5 4 5 5 7 7 5 5 5 6 5 9 9 10 10 9 9 5 4 3 2 3 5 5 5 5 5 5 5 5 6 6 10 15 12 9 6 4 6 5 3 4 5 8 13 12 10 9 9 11 11 13 15 13 12 11 9 9 7 7 7 6 8 9 9
14 13 12 11 11 11 11 12 11 10 10 11 12 12 12 10 8 7 8 8 9 8 8 7 6 7 6 6 6 5 5 7 10 10 10 11 7 5 4 3 3 4 6 5 5 5 5 5 5 5 6 7 11 14 13 12 6 7 2 3 4 5 6 7 9 10 11 14 16 18 18 17 17 18 18 19 15 12 7 7 7 7 9 9 10
13 12 12 11 12 13 13 13 13 12 11 13 14 12 10 7 9 9 12 11 11 9 7 6 5 6 7 7 7 6 5 7 10 10 11 12 8 5 4 5 4 5 5 5 5 5 7 11 9 7 7 7 11 12 13 9 5 2 3 4 5 5 7 5 3 4 9 12 13 15 15 15 17 17 17 18 18 14 7 8 9 8 8 8 10
12 13 14 13 12 11 11 11 12 12 13 13 11 12 11 11 8 7 7 7 7 6 6 7 6 5 5 6 7 7 5 6 10 11 12 12 9 5 6 5 5 5 5 6 5 5 6 7 10 8 6 7 12 12 12 9 3 4 1 2 5 6 7 2 4 6 6 7 7 9 9 11 9 7 9 17 18 14 8 8 7 8 8 9 9
14 13 10 9 9 10 10 12 12 12 14 12 10 11 7 6 8 9 6 5 6 6 6 6 7 7 5 5 6 5 5 5 5 12 12 12 13 7 5 5 6 6 5 5 5 4 5 6 7 7 8 11 11 11 11 11 3 3 1 1 5 9 1 2 4 5 5 5 7 7 8 8 8 8 8 8 8 7 10 10 9 8 8 9 9
8 7 7 8 8 10 9 11 13 12 11 11 9 6 6 8 7 7 8 6 5 5 7 6 6 5 4 4 5 4 4 5 6 12 12 13 14 13 6 8 6 6 5 6 5 5 5 5 4 5 9 11 10 11 11 9 8 2 2 3 6 8 6 5 7 9 5 5 6 6 7 6 6 6 6 7 7 7 7 9 8 9 9 9 10
6 6 8 9 9 9 10 9 10 10 7 8 8 8 5 6 7 7 6 7 8 7 6 6 6 6 4 4 4 5 5 8 5 10 13 14 15 17 8 8 8 6 7 6 6 5 5 4 3 5 9 10 10 10 9 9 8 3 5 9 12 12 6 3 4 4 5 5 6 6 6 7 6 6 6 5 6 7 8 8 9 9 10 9 10
7 7 8 8 9 10 9 10 10 8 8 9 10 9 7 8 7 7 8 8 8 8 7 6 6 6 5 5 5 5 5 6 11 7 11 14 15 17 17 11 14 9 7 6 6 6 3 4 4 7 10 10 9 8 8 8 6 4 9 10 9 10 8 4 5 5 5 5 6 6 6 6 7 7 6 6 7 8 8 8 9 10 10 10 10
6 7 8 8 8 8 8 8 7 7 9 9 9 9 9 8 7 8 8 9 8 8 7 6 6 7 8 7 6 6 5 5 8 12 10 14 15 17 18 18 16 9 7 5 5 4 3 3 5 9 10 9 8 8 7 6 5 8 8 9 9 8 3 5 4 4 5 6 6 6 7 6 6 6 6 7 8 8 9 9 9 10 10 10 10
7 7 8 7 8 6 6 7 8 8 8 10 10 9 8 8 9 6 7 7 8 9 8 7 9 8 6 8 7 5 5 5 5 9 14 13 15 16 17 17 16 16 9 4 4 4 6 10 10 9 8 8 7 7 5 6 7 7 7 8 7 2 3 4 4 4 5 6 6 6 6 7 7 7 7 8 8 7 7 8 8 8 9 10 10
6 7 6 7 7 7 8 6 6 7 8 8 10 10 12 11 10 9 8 9 9 9 8 8 8 7 8 7 6 5 4 5 6 6 7 10 11 15 16 15 15 15 12 7 9 11 12 10 8 8 7 5 3 0 1 2 6 6 6 6 2 3 2 3 4 4 5 6 6 7 7 8 8 7 7 6 6 7 7 9 10 10 10 11 12
6 5 7 5 4 5 8 8 7 6 6 6 6 7 7 8 8 9 9 10 9 9 8 8 7 7 8 7 6 5 5 5 5 5 6 6 5 6 7 6 8 9 6 4 5 4 4 5 5 7 1 3 4 4 4 4 3 2 2 1 2 2 3 2 4 4 5 5 6 7 7 8 7 6 6 7 7 7 6 8 9 9 10 10 10
7 6 6 6 7 7 7 7 8 7 7 7 8 7 7 8 10 12 13 13 11 9 8 8 9 10 9 7 6 4 5 5 6 7 7 7 6 6 6 5 5 3 4 5 5 5 4 5 2 3 2 3 2 2 2 1 2 3 2 3 3 4 5 6 6 3 4 4 6 6 7 7 7 7 7 7 7 7 7 8 8 10 9 10 9
5 5 5 5 6 5 7 7 7 7 6 6 6 5 8 9 10 7 3 4 8 10 10 10 9 7 7 7 7 6 5 7 9 9 8 10 9 7 7 7 5 4 7 10 7 5 3 3 4 2 0 2 4 4 5 4 3 2 3 5 3 3 3 2 4 4 4 4 5 6 7 8 7 6 7 7 7 7 7 8 8 8 9 7 9
5 5 6 6 5 6 6 6 5 6 7 7 7 5 4 8 6 6 5 7 12 10 8 8 7 6 6 6 7 8 8 7 4 11 15 16 16 16 13 12 11 8 10 14 9 7 7 6 5 4 3 1 4 5 6 5 5 5 3 4 4 4 4 3 3 5 5 4 5 6 7 7 7 7 7 8 8 7 8 10 9 8 9 9 10
5 5 5 7 7 6 5 6 5 5 5 5 5 6 4 5 12 13 9 9 11 14 13 11 11 12 8 6 7 12 9 7 8 9 12 15 15 16 17 17 16 15 16 11 8 5 5 5 5 3 4 2 3 6 5 5 5 5 5 3 3 3 5 4 4 5 5 5 6 6 6 6 7 7 7 7 8 8 8 7 7 7 8 9 9
8 8 7 5 6 6 5 5 5 5 4 4 5 5 5 5 4 10 14 13 13 13 13 13 12 12 14 11 7 4 10 13 12 11 12 13 15 16 17 18 18 17 15 15 7 6 6 6 5 5 4 4 6 6 5 6 6 5 5 4 5 3 4 4 4 4 4 5 5 6 5 6 6 7 7 7 8 7 7 8 7 9 9 8 8
7 5 5 5 5 5 5 5 5 5 6 6 5 5 6 6 7 5 6 12 15 13 13 14 14 13 13 13 13 11 10 12 15 14 14 14 15 15 16 18 17 16 16 11 6 5 5 5 5 4 5 6 6 6 6 5 6 6 5 5 5 4 3 4 5 4 4 5 5 5 5 5 7 8 8 7 7 8 8 7 7 8 8 8 9
4 4 5 5 6 5 5 5 5 5 4 4 5 5 5 5 5 5 5 4 6 10 13 14 14 14 15 14 14 15 13 13 14 14 15 15 15 16 15 11 15 17 15 8 5 5 5 5 5 5 6 6 6 6 5 6 5 6 5 5 5 4 4 4 4 5 4 5 5 5 5 5 7 7 7 7 6 6 7 7 7 8 8 9 10
2 4 7 6 5 6 5 5 5 5 5 5 6 6 6 5 5 5 6 7 7 8 7 7 11 14 9 9 13 14 15 16 16 17 17 16 15 15 15 10 8 8 2 2 4 5 5 5 5 6 6 6 7 6 7 5 5 5 6 5 5 4 4 4 4 5 5 5 5 4 4 5 6 7 7 7 7 7 7 7 7 7 8 9 8
3 4 4 5 6 5 5 6 6 6 6 5 5 5 4 4 4 4 4 5 4 5 4 4 2 2 3 3 4 6 7 8 10 13 14 15 15 15 8 6 5 5 6 5 5 5 5 5 6 6 6 6 6 6 6 6 6 6 4 5 5 5 5 5 6 5 5 5 5 6 6 5 5 7 7 7 7 7 7 7 7 7 8 8 8
3 3 3 3 4 3 4 4 4 4 4 4 4 4 4 4 3 4 3 4 4 3 4 2 1 4 2 2 3 7 8 9 9 10 12 13 15 10 6 5 6 6 5 7 6 5 6 6 6 6 6 6 6 7 6 6 6 5 4 5 5 5 5 5 6 6 5 5 5 5 5 5 5 6 7 7 7 6 6 7 7 8 8 11 12
3 4 5 4 4 4 4 3 3 4 3 4 3 3 3 3 3 4 4 4 4 4 4 2 2 4 5 4 5 4 5 7 8 8 8 8 5 3 2 3 4 5 6 6 6 6 6 6 5 6 7 6 6 6 6 6 6 6 6 4 4 5 8 7 8 6 5 6 6 6 5 5 5 6 7 6 6 6 7 7 6 7 8 9 8
4 5 7 7 6 6 6 5 5 5 4 4 4 4 4 4 4 4 4 3 3 3 2 3 4 5 5 3 2 2 2 2 2 6 5 6 5 4 4 4 3 4 4 5 5 5 5 6 6 6 5 6 6 6 6 6 6 6 6 5 5 5 6 6 6 6 6 6 6 6 5 5 5 6 6 6 6 6 7 7 7 7 7 8 8
6 4 7 8 6 6 6 6 5 6 5 6 5 5 4 5 5 5 4 4 4 4 4 5 6 7 4 2 2 1 1 5 4 4 4 5 5 5 3 5 5 5 6 6 5 5 6 6 6 6 6 6 6 6 6 6 6 6 6 6 5 6 6 6 6 6 6 6 6 6 6 6 6 6 6 6 6 6 8 7 7 7 6 7 8
5 5 5 6 6 5 5 5 5 5 5 5 5 5 5 5 5 5 5 5 5 5 5 4 5 3 2 4 7 7 5 4 5 4 5 5 5 5 5 5 5 6 6 6 6 5 5 6 5 6 6 5 6 6 5 6 6 5 6 6 5 6 6 6 6 6 6 6 6 6 6 6 5 6 7 6 7 7 7 7 7 6 7 6 7
5 5 4 4 5 5 5 4 4 5 5 4 5 5 3 3 4 5 4 5 3 4 4 3 4 3 5 9 9 11 6 5 5 5 5 5 5 5 5 6 5 5 6 6 6 6 6 6 6 5 6 6 6 6 6 6 6 6 6 6 6 6 6 7 6 6 6 6 6 6 6 6 6 6 8 8 6 6 7 7 7 7 6 6 7
5 4 5 5 5 5 5 5 5 5 4 4 3 3 2 3 4 3 3 3 4 4 4 4 4 1 2 6 6 8 4 3 1 2 3 3 4 4 5 6 6 6 6 6 6 6 6 6 6 6 6 7 6 6 7 7 6 6 6 6 6 6 7 6 6 6 6 6 7 6 6 5 6 6 6 6 6 6 7 8 7 6 6 6 6
6 6 6 4 5 3 4 4 4 4 3 4 3 3 3 3 4 3 4 3 3 3 3 4 3 2 3 4 3 4 3 3 4 4 4 5 5 5 5 5 5 4 5 5 5 5 5 5 6 7 6 6 6 5 6 6 6 6 6 6 6 7 7 7 7 6 6 6 6 6 6 6 6 6 7 7 5 7 8 7 7 6 6 6 7
6 6 6 6 4 6 4 3 4 4 4 4 4 3 4 3 3 3 3 3 4 3 3 3 3 2 5 5 3 3 5 4 5 5 5 5 5 6 6 6 5 5 6 5 5 5 5 6 6 6 7 7 6 6 6 6 5 6 6 7 7 8 8 8 7 5 5 5 6 6 6 6 6 6 6 6 6 7 7 7 6 7 7 6 7
5 6 6 6 6 6 5 4 4 4 5 5 5 4 3 2 3 2 3 3 3 2 3 3 3 3 5 5 4 5 5 4 5 5 6 5 6 6 6 6 6 5 6 6 5 5 6 6 6 7 7 7 6 6 6 6 6 6 6 7 8 8 7 6 5 5 5 6 6 6 6 6 6 6 8 6 6 7 7 8 7 6 6 7 7
4 4 4 5 5 5 5 5 4 3 3 2 3 3 3 2 2 2 4 4 3 5 4 4 3 5 5 5 5 5 5 4 5 5 6 6 6 6 6 5 6 6 6 6 5 6 6 7 7 7 7 7 6 7 6 6 6 6 6 6 7 7 7 6 6 6 6 6 6 6 7 6 6 5 8 8 7 7 8 8 7 6 6 7 7
4 4 4 4 4 4 4 3 3 3 3 3 2 3 3 3 2 3 4 3 3 5 4 3 4 5 5 5 5 5 5 5 5 6 6 6 6 6 6 5 6 6 6 6 6 6 6 6 7 7 7 7 7 7 7 6 6 6 6 6 6 7 8 8 7 7 6 6 6 7 7 7 6 6 7 7 7 7 8 8 6 6 7 7 7
5 5 4 4 4 4 6 4 5 4 4 3 2 2 3 2 3 3 3 3 3 4 3 5 6 5 5 6 6 5 5 6 6 6 6 6 6 6 6 6 6 6 6 7 7 6 6 6 6 6 7 7 7 7 7 6 7 7 7 6 7 11 13 13 9 7 8 7 6 7 7 7 7 7 8 8 8 8 9 9 7 7 7 6 6
4 4 4 3 3 2 3 3 3 3 3 3 3 2 1 2 2 3 3 3 4 4 5 5 5 6 5 5 6 6 5 5 6 6 6 6 6 5 6 6 6 6 6 7 7 6 6 6 6 6 6 7 7 7 6 7 7 7 6 7 9 12 12 14 15 14 10 6 7 6 7 8 7 7 7 8 8 10 10 8 7 7 8 8 7
4 3 3 2 2 2 2 3 2 2 2 2 3 3 2 4 4 4 3 4 5 5 4 6 6 5 5 6 6 5 6 6 6 6 6 6 6 6 6 6 7 6 6 6 7 7 6 6 6 6 6 6 7 7 7 7 6 7 8 12 14 14 14 14 10 11 15 11 6 7 7 9 9 9 8 8 9 9 9 9 9 8 7 6 7
Wind_Direction
158 159 153 155 154 159 160 158 156 151 147 149 143 147 149 145 146 143 129 134 136 136 138 139 137 137 133 128 120 115 112 110 112 110 101 96 85 85 72 73 73 52 61 13 18 19 9 360 337 346 347 12 345 348 351 352 357 349 338 325 307 285 287 277 285 289 294 315 330 324 337 324 321 333 324 323 321 315 315 307 307 311 311 309 309
163 159 160 158 162 161 161 157 154 151 148 149 148 152 154 151 146 139 138 141 138 140 140 139 141 137 134 129 120 114 115 123 123 115 110 101 89 85 76 78 85 69 71 53 7 360 7 17 352 5 357 14 349 1 351 356 347 353 325 334 307 296 297 297 284 287 294 310 321 324 314 323 314 326 322 320 318 316 314 314 310 307 309 308 307
160 159 159 162 163 161 157 159 157 156 153 154 157 157 154 147 146 142 144 146 143 144 147 147 147 139 134 132 127 130 135 129 127 118 114 109 104 90 88 96 99 95 78 39 14 2 16 25 5 17 359 9 359 353 345 344 333 324 312 298 276 274 259 257 281 289 295 301 316 320 327 324 318 319 320 313 306 306 307 310 312 309 303 302 302
162 163 163 163 161 159 165 163 160 161 161 163 162 159 152 151 146 141 146 147 150 147 144 148 144 143 140 137 140 145 141 134 124 119 119 115 111 104 99 90 94 99 100 54 30 24 14 21 14 17 6 6 346 346 333 323 307 301 288 275 262 270 289 291 290 291 299 302 313 320 321 319 315 312 307 303 304 305 303 301 300 298 300 298 296
167 166 164 161 165 168 169 167 166 168 167 165 164 158 157 151 148 148 148 154 154 148 148 147 145 146 150 153 156 153 151 140 130 123 117 115 114 113 106 98 91 82 93 49 32 41 27 29 14 9 2 356 331 332 309 320 324 309 321 327 325 320 317 309 304 301 300 302 307 311 314 310 309 308 309 309 307 299 298 297 299 299 296 291 292
169 164 167 168 172 175 171 171 174 173 170 167 164 163 157 153 152 152 158 159 157 160 158 159 157 155 151 161 161 153 148 142 136 134 129 123 118 115 116 114 128 107 104 353 34 42 37 25 9 359 354 336 315 309 323 334 333 334 334 330 329 325 320 314 310 308 305 302 305 308 312 316 316 311 311 305 306 308 304 296 291 290 292 296 293
169 171 174 176 176 178 176 180 177 176 172 167 162 159 160 158 159 163 165 163 163 164 164 158 154 152 159 160 161 155 145 140 139 135 134 131 132 129 130 145 157 180 192 181 47 40 32 16 352 332 323 300 313 325 330 327 330 330 330 333 330 328 320 315 313 310 307 306 305 305 308 311 314 314 315 309 301 300 305 316 313 306 295 295 300
174 177 177 181 184 182 182 180 179 174 168 163 163 162 160 163 166 161 160 166 170 170 168 160 155 147 161 162 160 145 139 144 149 146 141 140 137 149 152 157 164 183 167 76 56 40 357 329 301 293 297 315 317 320 319 319 326 330 329 331 323 318 316 312 309 307 304 303 305 308 304 300 291 279 290 302 307 305 310 310 309 313 308 303 298
179 181 182 185 190 184 178 180 177 171 167 164 165 166 166 165 163 162 168 167 165 168 158 151 147 147 155 159 158 145 146 161 162 156 147 148 149 156 158 160 164 157 120 94 26 26 308 292 287 300 311 314 314 312 312 319 325 323 320 317 307 304 284 280 276 283 284 285 287 286 288 286 288 295 308 314 314 311 305 303 302 300 296 297 296
182 185 187 191 185 180 182 180 179 171 169 172 172 169 168 167 166 166 169 168 166 162 157 153 155 161 159 166 159 148 164 174 182 179 173 157 161 159 153 163 148 130 111 111 225 214 221 76 351 322 312 309 310 312 316 323 316 308 295 292 286 267 267 266 271 271 277 283 284 286 285 282 289 305 310 309 305 299 306 306 297 298 302 300 296
187 188 193 189 184 182 184 186 177 178 177 170 172 170 170 168 168 169 168 166 167 163 159 156 154 169 172 170 164 163 174 190 191 194 184 165 156 160 156 164 150 137 155 175 211 194 26 335 287 288 291 292 289 293 313 316 308 296 290 285 283 282 272 280 278 273 278 285 289 288 279 284 297 309 308 303 300 303 301 298 299 306 309 315 314
189 193 193 188 187 187 190 182 180 181 175 179 173 172 166 167 172 172 169 170 171 164 172 175 172 168 171 171 165 173 180 197 193 197 190 181 166 160 164 155 158 165 182 196 170 159 233 249 256 248 255 255 254 259 286 291 288 285 287 287 286 287 293 301 308 310 308 305 306 306 306 301 301 300 293 301 306 310 314 317 320 321 321 318 314
191 193 193 191 191 191 186 185 186 181 183 177 170 168 171 173 175 174 182 178 159 176 177 164 179 178 177 176 175 175 192 202 198 199 193 196 192 169 165 169 179 194 185 154 180 214 217 234 252 258 252 273 283 275 260 268 279 281 281 285 287 286 290 297 301 303 306 306 305 303 303 307 301 295 308 322 330 325 328 323 319 314 314 309 305
193 196 194 196 192 188 187 186 188 187 179 174 171 175 176 185 182 178 166 161 176 179 179 182 179 186 185 179 174 176 192 213 197 202 198 199 196 190 157 163 166 179 178 198 209 215 223 225 239 260 265 265 268 268 262 262 262 267 262 257 252 264 271 294 311 311 309 303 302 299 307 314 318 324 329 329 325 323 323 317 321 322 317 307 307
196 199 198 196 187 187 189 189 191 186 182 177 176 180 184 182 179 180 177 180 182 186 184 186 193 186 185 171 165 191 205 213 204 204 204 196 202 163 133 139 150 182 209 210 216 224 232 230 234 245 259 270 270 270 261 269 263 260 263 263 262 276 323 326 312 304 301 303 305 315 327 331 322 321 323 326 325 318 315 323 330 317 309 305 294
201 200 200 193 192 191 187 190 191 187 181 177 180 187 188 187 183 176 179 184 184 170 191 186 188 187 182 169 168 203 225 213 207 206 204 198 193 132 143 147 185 208 217 221 227 231 234 234 235 249 258 264 272 287 304 301 288 297 292 301 345 343 320 299 304 309 311 317 321 318 317 316 320 323 327 329 323 315 329 327 311 301 306 303 300
205 202 200 194 193 189 188 189 191 185 183 183 191 193 189 188 185 174 180 187 169 189 194 191 189 181 179 179 182 205 220 222 212 208 203 199 181 140 144 157 187 216 232 229 235 240 240 242 236 239 256 262 271 296 307 315 309 294 325 20 332 320 304 291 300 315 323 323 323 322 322 325 328 331 333 332 330 334 337 323 312 313 313 311 308
206 198 200 196 194 192 192 188 189 189 186 193 196 197 193 188 188 183 185 180 189 195 183 183 189 186 185 190 188 192 213 228 219 212 204 208 177 153 158 178 203 209 235 241 234 243 245 252 253 239 254 261 282 305 310 309 302 345 42 334 325 310 293 303 353 318 319 323 323 322 322 323 328 328 326 328 332 338 334 312 306 308 300 300 302
202 200 204 200 195 191 190 190 192 189 194 200 196 193 192 193 183 173 193 188 189 165 174 187 191 197 198 190 189 193 203 227 226 219 210 209 200 162 170 169 203 226 228 248 247 228 248 251 259 269 270 284 304 305 301 306 335 91 346 339 318 296 292 41 332 325 329 332 325 328 322 323 319 312 308 321 325 326 307 294 302 305 298 298 298
205 206 201 189 189 189 190 191 194 191 197 196 192 198 182 161 173 179 185 182 174 175 179 188 194 201 192 186 201 194 194 219 237 225 217 211 207 169 170 176 210 224 225 226 246 249 228 236 260 273 286 301 303 298 302 313 334 120 48 346 296 288 330 33 337 341 329 324 309 312 307 308 311 310 306 304 303 303 315 315 309 298 293 295 294
197 194 185 182 185 190 189 192 195 198 195 193 185 172 169 175 161 172 178 172 168 178 189 195 198 205 196 204 198 213 196 208 233 229 224 216 212 196 178 200 208 219 225 230 227 227 237 238 207 242 292 301 294 296 309 313 310 71 339 248 252 288 8 23 344 340 322 313 309 307 305 303 300 298 294 296 295 297 303 309 302 299 298 294 296
177 173 179 186 187 187 191 196 195 189 174 156 163 176 170 159 171 172 169 173 184 191 190 195 198 210 211 209 210 215 220 220 216 239 227 222 219 216 186 201 202 207 228 226 229 237 235 208 173 252 293 293 289 303 312 311 319 2 287 298 316 330 16 9 327 320 314 316 312 309 304 304 304 301 294 291 298 308 311 308 309 305 299 291 291
170 176 180 184 189 190 191 186 182 170 172 174 171 176 168 168 172 168 172 179 186 192 195 195 197 212 225 226 222 222 221 232 228 223 232 227 225 224 218 201 220 214 213 227 221 224 190 183 212 264 291 283 293 306 309 317 336 301 309 323 332 352 9 342 327 323 319 313 309 305 303 302 308 310 307 315 318 317 316 312 308 304 297 292 284
164 173 185 191 186 189 185 181 174 171 171 167 172 169 176 176 172 179 180 181 186 195 202 194 200 211 219 228 225 223 220 212 237 228 225 229 230 227 228 227 222 218 223 224 234 203 198 206 219 268 276 284 296 305 314 317 307 311 326 332 358 4 354 340 335 325 315 310 310 307 306 301 295 299 308 315 315 317 314 312 308 303 297 295 291
169 181 189 186 184 178 166 175 177 176 174 169 173 177 175 168 178 188 177 189 192 199 203 188 203 210 213 225 227 220 214 212 222 236 229 227 229 231 230 230 232 232 233 222 201 181 207 244 269 279 284 289 295 313 328 315 308 320 330 347 7 356 344 340 329 324 321 311 304 299 298 298 297 291 295 307 308 309 309 309 305 298 290 287 287
177 194 183 183 181 162 169 176 176 179 176 186 188 183 179 180 185 180 184 197 197 199 197 191 205 206 219 227 229 222 210 204 215 222 234 234 234 233 232 232 232 235 238 234 220 228 247 260 275 289 294 299 332 20 200 262 307 326 338 352 352 328 324 324 313 313 300 301 300 303 299 299 299 296 297 300 306 310 317 320 322 321 322 320 318
182 175 185 171 157 166 179 181 178 181 184 185 186 178 178 181 183 183 190 194 197 199 194 191 199 206 220 222 223 217 214 210 212 213 215 226 242 248 251 257 259 249 250 283 280 284 285 287 271 258 149 289 320 336 339 332 340 321 312 303 301 292 281 262 267 282 294 296 298 294 295 291 289 296 308 313 313 313 320 319 318 316 320 320 318
186 191 180 171 175 179 186 177 176 185 192 184 186 188 194 187 190 196 192 193 188 196 188 194 201 204 210 209 207 208 224 216 217 210 209 208 216 221 229 239 242 236 246 249 242 243 236 251 301 68 42 18 354 354 336 315 279 288 289 287 282 271 283 301 306 286 271 273 284 293 298 305 306 308 309 312 308 311 320 321 321 317 320 320 322
176 169 169 165 187 184 186 178 186 182 186 200 222 210 194 197 206 222 230 192 199 188 189 204 206 205 196 193 185 211 218 223 227 209 205 204 202 203 209 213 215 218 221 228 230 229 194 182 193 213 79 312 318 307 300 305 294 273 287 291 276 283 296 289 295 293 291 302 301 304 304 300 300 306 308 308 311 317 320 318 318 318 316 317 318
173 189 178 186 181 179 190 188 182 185 185 196 200 243 243 215 218 209 211 197 211 219 203 207 195 183 197 209 190 196 202 220 216 208 211 213 216 215 211 214 215 211 226 237 236 196 202 196 205 208 250 284 287 289 286 286 288 299 274 283 303 304 284 284 283 287 296 299 300 304 298 297 303 314 312 310 311 315 320 326 317 318 321 325 324
192 194 184 204 193 187 183 187 190 186 188 184 195 205 240 246 225 224 214 210 215 220 222 218 206 195 184 202 222 228 239 235 221 215 215 217 218 218 215 215 222 232 241 240 242 171 182 188 211 210 240 240 256 263 265 269 273 278 283 275 263 272 286 284 280 285 294 301 302 294 292 300 311 311 308 310 313 316 316 314 312 319 321 322 320
198 205 199 194 174 183 184 181 173 183 191 185 188 198 205 220 249 228 221 217 217 219 223 221 215 203 201 200 188 237 236 233 227 222 222 222 221 220 222 227 233 239 245 248 239 213 198 216 225 238 224 237 250 246 248 247 258 258 269 294 281 255 261 279 281 287 290 295 294 290 295 310 309 303 301 306 314 313 314 316 324 326 324 321 317
208 198 181 177 176 175 176 180 185 182 188 186 195 193 203 209 216 226 228 222 221 222 222 222 222 222 217 215 208 203 211 220 223 224 225 225 225 226 230 234 237 242 246 246 232 210 174 191 200 224 216 231 243 234 241 238 244 254 244 248 270 270 263 270 293 285 280 280 282 290 305 311 306 302 299 305 316 315 316 316 318 319 318 318 320
212 182 178 176 172 183 181 185 180 190 180 183 192 196 212 209 218 200 195 211 221 225 223 222 222 225 228 226 224 221 219 219 221 224 229 233 235 237 239 244 246 243 241 238 201 198 184 182 206 224 238 236 241 236 240 241 236 240 254 254 254 269 274 282 285 282 283 285 282 287 305 301 300 303 302 303 310 308 309 312 318 323 327 327 323
169 148 152 156 172 177 175 178 176 174 179 184 189 198 207 204 199 197 197 201 205 198 191 207 217 219 229 239 240 233 226 221 222 227 234 236 237 237 239 239 236 234 262 62 184 182 185 206 218 232 226 234 235 221 232 235 236 238 244 257 264 266 277 279 278 282 281 279 283 292 292 299 301 298 294 302 308 314 313 315 317 320 321 322 320
154 150 151 160 160 167 172 176 178 181 188 187 185 193 182 182 189 200 196 207 204 197 207 197 173 353 334 301 311 310 297 284 269 257 252 251 249 243 236 229 224 225 232 220 188 214 191 208 217 236 226 230 230 227 227 231 232 231 235 237 258 263 265 272 272 276 273 271 286 297 300 291 290 294 293 288 292 299 306 307 310 314 317 317 322
147 144 145 157 157 153 158 158 167 175 181 166 165 158 172 175 174 169 189 193 197 195 191 183 19 294 306 23 342 304 297 289 289 284 267 255 248 246 243 233 221 222 215 227 221 214 221 227 218 231 226 227 226 225 221 229 231 230 238 233 235 256 258 255 257 257 268 281 278 272 274 280 286 288 286 291 299 299 300 300 303 310 317 321 323
137 145 147 142 134 130 127 137 144 162 139 150 155 153 137 138 170 182 192 198 196 189 196 164 171 220 244 259 55 42 328 312 302 289 303 320 329 357 333 271 232 217 225 220 221 211 222 232 219 221 233 221 232 227 220 235 231 227 232 240 241 238 261 267 276 284 286 276 270 268 274 276 274 279 280 282 294 301 297 297 302 308 313 316 318
125 142 145 143 143 141 140 139 151 139 147 152 160 158 177 169 178 177 189 178 184 189 171 143 209 221 236 244 288 346 357 311 270 251 257 260 270 279 288 282 260 259 247 242 222 219 221 233 233 224 229 227 229 230 218 234 226 228 230 233 246 251 257 264 266 261 258 259 266 268 270 274 272 270 274 286 292 292 292 292 299 306 311 312 314
139 140 147 146 141 148 149 154 151 154 160 155 163 159 159 169 176 179 167 173 194 196 198 204 204 229 234 190 221 139 184 240 247 253 260 269 269 281 280 272 263 252 249 246 236 233 234 239 236 231 232 231 229 232 226 225 226 230 225 228 235 249 248 245 252 253 253 255 264 269 269 271 275 284 285 279 279 284 290 295 297 299 298 300 304
137 142 141 146 142 135 130 137 148 156 153 155 163 164 178 175 173 174 180 190 186 186 212 216 234 245 212 230 246 225 196 224 238 244 244 248 254 256 254 244 242 252 253 252 249 242 234 240 240 236 240 238 234 230 232 226 229 228 226 232 233 244 249 246 245 250 254 256 259 264 267 270 278 286 284 276 287 294 295 292 288 288 292 295 299
128 122 117 117 123 128 137 147 153 145 146 156 166 175 175 171 172 150 181 191 201 203 221 234 238 233 251 260 261 262 245 201 213 231 237 232 236 242 238 237 230 232 237 237 236 238 239 237 241 238 240 241 234 235 226 232 228 227 229 230 235 241 247 247 243 244 248 251 252 255 261 268 275 278 283 291 291 287 287 288 286 286 289 294 300
123 122 128 134 144 157 157 157 146 148 153 162 169 168 166 143 136 175 184 195 199 198 210 231 248 236 254 276 284 287 314 336 330 269 263 255 244 242 238 238 235 230 229 233 230 228 231 235 240 237 236 238 231 226 221 227 220 222 222 230 233 238 245 250 247 246 245 249 252 255 259 268 275 273 271 273 279 284 285 286 282 282 289 296 298
133 133 131 130 129 118 128 137 149 157 160 158 153 150 150 156 167 175 183 199 205 212 213 232 249 269 274 284 298 310 304 286 277 270 266 274 280 272 264 258 258 254 250 248 249 238 233 243 251 255 250 247 241 234 231 232 217 220 223 227 235 239 241 245 244 243 239 247 253 255 259 263 269 273 272 277 282 285 283 281 282 289 295 296 298
139 138 140 135 139 140 147 142 148 145 147 144 157 163 157 165 175 181 181 197 215 219 231 238 252 259 276 275 255 245 250 250 258 260 260 254 258 265 268 268 258 253 251 252 246 237 232 237 245 252 257 250 241 237 238 235 224 222 223 221 230 240 240 240 242 236 228 238 254 260 263 259 262 264 273 274 273 272 276 281 287 291 293 293 295
145 146 143 145 143 146 146 152 149 153 157 164 163 171 175 168 177 181 193 203 212 225 242 247 246 249 251 261 262 254 251 247 251 252 256 257 252 257 258 260 261 252 246 246 246 235 234 232 237 242 248 251 247 242 240 239 234 229 227 225 229 237 241 245 245 238 235 234 245 252 260 259 256 258 269 271 270 274 274 276 270 270 279 288 288
133 139 139 143 150 146 144 140 141 147 154 154 160 170 184 190 185 203 209 208 216 228 239 245 244 248 251 254 259 261 256 253 254 257 254 256 259 260 266 265 263 260 255 248 241 239 236 235 234 238 245 250 249 247 245 241 238 235 230 231 234 238 242 242 238 238 239 234 234 242 251 254 262 263 273 275 274 272 272 272 268 275 279 286 286
127 128 132 131 130 138 143 143 156 159 159 172 173 182 185 187 202 206 219 225 232 240 245 253 249 251 253 259 253 257 259 258 258 256 260 260 261 261 262 263 262 260 261 260 252 244 237 236 235 236 240 244 246 245 245 243 242 238 238 234 234 234 234 233 236 237 233 232 230 237 242 250 255 259 263 260 261 263 270 272 274 274 280 281 284
127 130 134 139 147 157 159 165 172 179 187 186 192 202 203 212 218 225 225 230 234 237 231 242 252 251 248 253 258 258 257 260 261 262 259 258 259 259 257 257 261 262 261 265 262 257 250 246 243 240 240 241 240 241 244 244 246 243 243 241 238 237 240 239 237 238 229 226 230 232 237 241 248 253 255 257 258 260 261 263 268 278 280 274 274
130 136 139 144 146 155 147 155 168 173 172 176 192 212 227 219 242 237 234 236 246 247 243 239 244 247 245 255 254 256 254 255 256 256 258 259 259 259 262 261 260 259 259 261 264 262 257 251 248 248 247 246 245 242 241 242 245 246 247 245 245 245 243 243 243 242 239 231 229 229 231 241 243 246 246 247 251 258 261 262 270 278 278 276 276
127 127 132 134 142 142 144 155 166 169 180 188 200 215 227 236 239 241 237 238 242 249 246 241 242 247 249 246 247 253 254 254 253 256 258 261 261 260 259 260 261 263 263 263 266 267 263 259 254 251 250 249 248 247 245 244 244 243 246 250 253 251 251 250 247 246 243 240 228 227 232 235 237 238 243 249 254 252 259 274 278 271 267 272 277